Location: Poughquag
(41.6090°N, 73.6820°W)
Time: 12:28:01
(UTC-04:00)

A-11 Canister half - Pass Details

Date: 31 May 2020
Orbit: 1527 x 1682 km, 47.3° (Epoch: 06 July)

Event Time Altitude Azimuth Distance (km) Brightness Sun altitude
Rises 14:42:55 0° 297° (WNW) 4,746 11.8 59.7°
Reaches altitude 10° 14:46:05 10° 292° (WNW) 3,779 11.5 59.2°
Maximum altitude 14:55:07 48° 222° (SW) 2,021 11.6 57.7°
Drops below altitude 10° 15:04:26 10° 152° (SSE) 3,882 11.2 56.2°
Sets 15:07:45 0° 147° (SSE) 4,884 11.6 55.6°
